This is the latest recevied weather packets stored in our database for station/object K3FAZ. If no packets are shown the sender has not sent any weather packets the latest 10 day(s).
| Time | Temp. | Humidity | Pressure | Rain* | Wind** | Luminosity | Snow |
|---|---|---|---|---|---|---|---|
| 1777496066 | 14.44° C | 94% | 1008.7 hPa | 0 mm | - | 63 W/m² | - |
| 1777495761 | 14.44° C | 93% | 1008.7 hPa | 0 mm | - | 67 W/m² | - |
| 1777495458 | 14.44° C | 93% | 1008.9 hPa | 0 mm | - | 90 W/m² | - |
| 1777495154 | 15° C | 94% | 1008.7 hPa | 0 mm | - | 79 W/m² | - |
| 1777494851 | 15° C | 94% | 1008.5 hPa | 0 mm | - | 121 W/m² | - |
| 1777494548 | 15° C | 94% | 1008.7 hPa | 0 mm | - | 192 W/m² | - |
| 1777494246 | 15° C | 94% | 1008.6 hPa | 1.27 mm | - | 207 W/m² | - |
| 1777493943 | 15.56° C | 95% | 1008.6 hPa | 1.27 mm | - | 233 W/m² | - |
| 1777493641 | 15.56° C | 95% | 1008.5 hPa | 0 mm | - | 383 W/m² | - |
| 1777493337 | 15° C | 96% | 1008.3 hPa | 0 mm | - | 395 W/m² | - |
| 1777493034 | 15° C | 96% | 1008.4 hPa | 1.78 mm | - | 374 W/m² | - |
| 1777492731 | 15° C | 96% | 1008.5 hPa | 1.78 mm | - | 265 W/m² | - |
| 1777492431 | 14.44° C | 96% | 1008.4 hPa | 0 mm | - | 280 W/m² | - |
| 1777492128 | 14.44° C | 95% | 1008.2 hPa | 0 mm | - | 172 W/m² | - |
| 1777491825 | 14.44° C | 95% | 1007.8 hPa | 1.27 mm | - | 113 W/m² | - |
| 1777491522 | 14.44° C | 95% | 1008.2 hPa | 1.27 mm | - | 66 W/m² | - |
| 1777491220 | 14.44° C | 95% | 1008.4 hPa | 0 mm | - | 56 W/m² | - |
| 1777490915 | 14.44° C | 95% | 1008.4 hPa | 1.78 mm | - | 73 W/m² | - |
| 1777490612 | 14.44° C | 95% | 1008.3 hPa | 1.78 mm | - | 112 W/m² | - |
| 1777490307 | 15° C | 95% | 1008.3 hPa | 1.78 mm | - | 105 W/m² | - |
| 1777490005 | 15.56° C | 97% | 1008.1 hPa | 1.78 mm | - | 161 W/m² | - |
| 1777489703 | 15.56° C | 97% | 1008 hPa | 1.27 mm | - | 102 W/m² | - |
| 1777489399 | 15.56° C | 97% | 1008.1 hPa | 10.16 mm | - | 79 W/m² | - |
| 1777489096 | 15.56° C | 97% | 1008.3 hPa | 14.99 mm | - | 29 W/m² | - |
| 1777488793 | 15.56° C | 98% | 1008.1 hPa | 10.67 mm | - | 17 W/m² | - |
* Rain latest hour (hover to see other rain measurements)
** Current wind speed in m/s (hover to see current wind gust speed)